Regional Weather Roundup
Issued by NWS Nashville, TN

Home | Current Version | Previous Version | Text Only | Print | Product List | Glossary On
Versions: 1 2 3 4 5 6 7 8 9 10 11 12 13 14 15 16 17 18 19 20 21 22 23 24 25 26 27 28 29 30 31 32 33 34 35 36 37 38 39 40 41 42 43 44 45 46 47 48 49 50
000
ASUS44 KOHX 260415
RWROHX
MIDDLE TENNESSEE HOURLY WEATHER ROUNDUP
NATIONAL WEATHER SERVICE NASHVILLE TN
1100 PM CDT SAT OCT 25 2014

NOTE: "FAIR" INDICATES FEW OR NO CLOUDS BELOW 12,000 FEET WITH
NO SIGNIFICANT WEATHER AND/OR OBSTRUCTIONS TO VISIBILITY.

* THESE REPORTS ARE NOT UNDER NWS QUALITY CONTROL AND MAY NOT
  REPORT WEATHER SUCH AS PRECIPITATION AND FOG.


TNZ005>011-023>034-057-059-062>066-078-080-260500
...NORTHERN MIDDLE TENNESSEE...

CITY           SKY/WX    TMP DP  RH WIND       PRES   REMARKS
CLARKSVILLE    FOG       58  57  97 CALM      30.01F VSB 1/2
CROSSVILLE     CLEAR     55  51  86 CALM      30.06F
NASHVILLE      CLEAR     61  60  97 S5        30.03S
SMYRNA         FOG       54  54 100 CALM      30.03F VSB 1/4
SPARTA         MOCLDY    48  48 100 CALM      30.04S VSB 1/4
$$
TNZ056-058-060-061-075>077-079-093>097-260500
...SOUTHERN MIDDLE TENNESSEE...

CITY           SKY/WX    TMP DP  RH WIND       PRES   REMARKS
COLUMBIA       CLEAR    N/A N/A N/A CALM      30.03S
FAYETTEVILLE   PTCLDY    61  57  88 SW6       30.06S
MCMINNVILLE    MOCLDY    55  55 100 CALM      30.05S VSB 3/4
SHELBYVILLE      N/A     55  55 100 E3        30.05F VSB 1
TULLAHOMA      CLEAR     54  54 100 CALM      30.06S
WINCHESTER     CLEAR     55  54  94 CALM      30.06S
$$


...KEY TO REMARKS...
VSB - VISIBILITY IN MILES
WCI - WIND CHILL INDEX
HX  - HEAT INDEX




USA.gov is the U.S. government's official web portal to all federal, state and local government web resources and services.